www.pogodaiklimat.ru

Погода и климат >> Архив погоды >> Малайзия >> Алор Стар


ПОГОДА в Алор Стар

  • Прогноз погоды в Алор Стар
  • Монитор погоды в Алор Стар

АРХИВ ПОГОДЫ в Алор Стар

Время (UTC), дата Ветер
(напр.,м/с)
 
Видим.   Явления Облачность Т
(С)
Тd
(С)
f
(%)
Тe
(С)
Тes
(С)
Комфортность P
(гПа)
Po
(гПа)
Тmin
(С)
Tmax
(С)
R
(мм)
R24
(мм)
S
(см)
18 16.01 В 3 10 км мгла 9/1 900 м
[Sc Ac lent Cs]
+27.1 +23.1 79 +36 +36 очень
душно
1010.7 1010.2
00 17.01 СВ 1 14 км мгла 8/1 600 м
[Cu med, cong Ac lent Ci sp]
+25.2 +23.3 89 +34 +34 очень
душно
1009.5 1009.0 +23.1
06 17.01 СВ 3 14 км мгла 8/4 600 м
[Cu hum Ac lent Ci fib]
+32.2 +24.6 64 +45 +51 опасность
перегрева
1008.8 1008.3
12 17.01 СВ 2 12 км мгла 9/3 900 м
[Sc Ac lent Ci fib]
+27.8 +23.9 79 +38 +38 очень
душно
1008.6 1008.1 +33.1 0.0
18 17.01 В 3 12 км мгла 9/3 900 м
[Sc Ac lent Ci sp]
+27.0 +23.1 79 +36 +36 очень
душно
1010.2 1009.7
21 17.01 В 3 12 км мгла 9/3 900 м
[Sc Ac lent Ci sp]
+27.0 +23.1 79 +36 +36 очень
душно
1010.2 1009.7
00 18.01 СВ 2 12 км мгла 9/1 600 м
[Cu hum Ac lent Ci fib]
+26.0 +22.6 82 +34 +35 очень
душно
1010.1 1009.6 +25.2 0.0
03 18.01 СВ 2 12 км мгла 9/1 600 м
[Cu hum Ac lent Ci fib]
+26.0 +22.6 82 +34 +41 очень
душно
1010.1 1009.6 +25.2 0.0
06 18.01 В 5 14 км мгла 8/4 600 м
[Cu med, cong Ac lent Ci sp]
+33.1 +24.0 59 +45 +48 опасность
перегрева
1009.1 1008.6
09 18.01 В 5 14 км мгла 8/4 600 м
[Cu med, cong Ac lent Ci sp]
+33.1 +24.0 59 +45 +46 опасность
перегрева
1009.1 1008.6
12 18.01 СВ 4 12 км мгла 9/3 900 м
[Sc Ac lent Ci sp]
+28.9 +23.2 71 +39 +39 очень
душно
1009.0 1008.5 +33.7
18 18.01 СВ 2 12 км мгла 9/3 900 м
[Sc Ac lent Ci fib]
+26.5 +22.6 79 +35 +35 очень
душно
1010.3 1009.8
00 19.01 СВ 2 12 км мгла 9/1 600 м
[Cu med, cong Ac lent Ci sp]
+25.4 +23.0 87 +34 +34 очень
душно
1009.8 1009.3 +25.1
06 19.01 СВ 4 14 км мгла 8/4 600 м
[Cu med, cong Ac trans Ci sp]
+32.0 +23.1 59 +42 +47 опасность
перегрева
1009.3 1008.8
12 19.01 СВ 3 14 км мгла 8/1 900 м
[Sc Ac trans Ci sp]
+29.2 +22.6 68 +39 +39 очень
душно
1009.2 1008.7 +33.6
18 19.01 СВ 2 12 км мгла 8/1 900 м
[Sc Ac lent Ci sp]
+26.1 +23.0 83 +35 +35 очень
душно
1011.3 1010.8
00 20.01 З 1 14 км мгла 8/1 660 м
[Cu hum Ac trans Ci sp]
+23.3 +22.6 96 +32 +33 очень
душно
1010.4 1009.9 +23.3
06 20.01 СВ 4 15 км мгла 6/3 600 м
[Cu med, cong Ac trans Ci sp]
+32.6 +23.2 58 +43 +49 опасность
перегрева
1010.5 1010.0
12 20.01 СВ 2 12 км мгла 8/1 900 м
[Sc Ac trans Ci sp]
+29.7 +23.0 67 +40 +40 очень
душно
1009.2 1008.7 +34.6
18 20.01 СВ 3 12 км мгла 8/1 900 м
[Sc Ac lent Ci sp]
+26.2 +22.3 79 +34 +34 очень
душно
1012.1 1011.6
00 21.01 С 2 12 км мгла 8/1 600 м
[Cu hum Ac trans Ci sp]
+23.6 +22.7 95 +31 +31 очень
душно
1011.5 1011.0 +23.3
06 21.01 С 4 12 км мгла 8/1 600 м
[Cu hum Ac lent Ci fib]
+32.6 +23.5 59 +44 +51 опасность
перегрева
1010.9 1010.4
12 21.01 СВ 2 12 км мгла 8/3 900 м
[Sc Ac lent Ci fib]
+29.8 +23.6 69 +40 +40 очень
душно
1010.1 1009.6 +33.8
18 21.01 С 1 12 км мгла 8/1 900 м
[Sc Ac lent Ci sp]
+24.8 +23.3 91 +33 +33 очень
душно
1012.9 1012.4
00 22.01 С 2 9000 м мгла 9/1 600 м
[Cu hum Ac lent Ci fib]
+23.5 +22.6 95 +31 +31 очень
душно
1012.3 1011.8 +23.4
06 22.01 СВ 4 12 км мгла 9/3 600 м
[Cu med, cong Ac lent Ci sp]
+33.0 +23.7 58 +44 +49 опасность
перегрева
1011.4 1010.9
12 22.01 СВ 3 12 км мгла 9/1 900 м
[Sc Ac lent Ci sp]
+29.4 +22.7 67 +39 +39 очень
душно
1010.6 1010.1 +33.4
18 22.01 штиль 0 12 км мгла 9/3 900 м
[Sc Ac lent Ci fib]
+25.1 +23.2 89 +34 +34 очень
душно
1012.3 1011.8
00 23.01 СВ 1 12 км мгла 9/1 600 м
[Cu med, cong Ac lent Ci sp]
+23.7 +22.6 94 +31 +31 очень
душно
1011.7 1011.2 +23.4
06 23.01 СВ 4 12 км мгла 9/5 600 м
[Cu med, cong Ac lent Ci sp]
+32.2 +23.0 58 +42 +46 опасность
перегрева
1011.1 1010.6
12 23.01 СВ 2 12 км мгла 9/1 900 м
[Sc Ac lent Ci sp]
+29.2 +22.9 69 +39 +39 очень
душно
1010.6 1010.1 +34.0

 

Местоположение метеостанции Алор Стар (Малайзия): широта 6.20 долгота 100.40 высота над уровнем моря 5 м.

В архиве по умолчанию представлена погода в Алор Стар за последнюю неделю. Архивные данные за месяц целиком и за предыдущие месяцы, начиная с января 2011 года, Вы можете получить, выбрав интересующий диапазон дат из раскрывающегося списка и нажав кнопку "Ввод!".


*Определитесь, кто Вы:
робот инопланетянин человек

Внимание! Время в таблицах - всемирное. Для получения местного времени необходимо прибавить поправку, которая равна 7 ч.

Смотрите также архив погоды в соседних городах и на ближайших метеорологических станциях:

Погода в Сатуне (Таиланд) (61 км)
Погода в Хо Хонг Агромете (Таиланд) (61 км)
Погода в Садао (Таиланд) (67 км)
Погода в Лангкави (Малайзия) (75 км)
Погода в Хатъяе (Таиланд) (80 км)
Погода на Авиабазе Баттерворт (Малайзия) (81 км)
Погода в Пенанге (Малайзия) (101 км)
Погода в Яла Агромете (Таиланд) (104 км)
Погода в Паттани (Таиланд) (105 км)
Погода в Сонгкхле (Таиланд) (114 км)

Пояснения к столбцам:

Ветер - указаны скорость ветра в м/с - средняя за 10 мин, порывы в срок и между сроками (в фигурных скобках) и направление, откуда дует ветер: С - северный, СВ - северо-восточный, В - восточный, ЮВ - юго-восточный, Ю - южный, ЮЗ - юго-западный, З - западный, СЗ - северо-западный.
Видимость - горизонтальная дальность видимости в метрах или километрах. При видимости от 1 до 10 км при отсутствии осадков обычно наблюдается дымка, при ухудшении видимости до 1 км и менее - туман. В сухую погоду видимость может ухудшаться дымом, пылью или мглою.
Явления - указаны атмосферные явления, наблюдавшиеся в срок или в последний час перед сроком; фигурными скобками обозначены явления, наблюдавшиеся между сроками (за 1-3 часа до срока); квадратными скобками обозначены град или гололедные отложения с указанием их диаметра в мм.
Облачность - указаны через наклонную черту общая и нижняя облачность в баллах и высота нижней границы облаков в метрах; квадратными скобками обозначены формы облаков: Ci - перистые, Cs - перисто-слоистые, Cc - перисто-кучевые, Ac - высококучевые, As - высокослоистые, Sc - слоисто-кучевые, Ns - слоисто-дождевые, Cu - кучевые, Cb - кучево-дождевые. Подробнее классификацию облаков см. в Атласе облаков (PDF).
T - Температура воздуха - температура, измеренная на высоте 2 м над землей.
Td - Температура точки росы - температура, при понижении до которой содержащийся в воздухе водяной пар достигнет насыщения.
f - Относительная влажность воздуха - влажноcть воздуха, измеренная на высоте 2 м над землей.
Te - Эффективная температура - температура, которую ощущает одетый по сезону человек в тени. Характеристика душности погоды. При расчете учитывается влияние влажности воздуха и скорости ветра на теплоощущения человека.
Tes - Эффективная температура на солнце - температура, которую ощущает человек, с поправкой на солнечный нагрев. Характеристика знойности погоды. Зависит от высоты солнца над горизонтом, облачности и скорости ветра. Ночью, в пасмурную погоду, а также при ветре 12 м/с и более поправка равна нулю.
P - Атмосферное давление - приведенное к уровню моря атмосферное давление.
Po - Атмосферное давление - измеренное на уровне метеостанции атмосферное давление.
Tmin - Минимальная температура - минимум температуры воздуха на высоте 2 м над землей.
Tmax - Максимальная температура - максимум температуры воздуха на высоте 2 м над землей.
R - Количество осадков - Количество выпавших осадков за период времени, мм. При наведении курсора мыши на число - период времени, за который выпало указанное количество осадков.
R24 - Количество осадков - Количество выпавших осадков за 24 часа, мм.
S - Снежный покров - Высота снежного покрова, см. При наведении курсора мыши на число - состояние снежного покрова и степень покрытия местности в баллах.